^^
Meteo Knjazevac Station Historical Data
Daily Summary for August 12, 2020 Units:  Metric    English   Both
Daily Weekly Monthly Yearly Custom
  High: Low: Average:
Temperature: 30.8 °C 16.7 °C 22.1 °C
Dew Point: 23.2 °C 16.6 °C 19.4 °C
Humidity: 99% 55% 87%
Wind Speed: 14.5km/h 0km/h 3.1km/h
Wind Gust: 30.6km/h - -
Wind- - SW
Pressure: 1017.5 hPa 1014.8 hPa -
Precipitation: 4.06 mm    
Historical Graphs
 
 
Tabular Data for August 12, 2020
Time Temperature Dew Point Pressure Wind Wind Speed Wind Gust Humidity Rainfall Rate (Hourly) solar Conditions
00:00 19.8 °C 19.2 °C 1015.8 hPa Calm   4.8 km/h 96% 0 mm 0 W/m2
00:10 19.8 °C 19.2 °C 1016.1 hPa West 3.2 km/h 4.8 km/h 96% 0 mm 0 W/m2
00:20 19.8 °C 19.2 °C 1015.8 hPa Calm   4.8 km/h 96% 0 mm 0 W/m2
00:30 19.6 °C 18.9 °C 1015.8 hPa WSW 1.6 km/h 3.2 km/h 96% 0 mm 0 W/m2
00:40 19.4 °C 18.7 °C 1016.1 hPa Calm   3.2 km/h 96% 0 mm 0 W/m2
00:50 19.3 °C 18.7 °C 1016.1 hPa WSW 1.6 km/h 4.8 km/h 96% 0 mm 0 W/m2
01:00 19 °C 18.3 °C 1016.1 hPa WSW 1.6 km/h 4.8 km/h 96% 0 mm 0 W/m2
01:10 18.9 °C 18.6 °C 1016.1 hPa Calm   3.2 km/h 98% 0 mm 0 W/m2
01:20 18.8 °C 18.5 °C 1016.1 hPa Calm   3.2 km/h 98% 0 mm 0 W/m2
01:30 18.7 °C 18.4 °C 1016.1 hPa WSW 1.6 km/h 3.2 km/h 98% 0 mm 0 W/m2
01:40 18.6 °C 18.3 °C 1016.1 hPa WNW 1.6 km/h 4.8 km/h 98% 0 mm 0 W/m2
01:50 18.6 °C 18.3 °C 1015.8 hPa West 3.2 km/h 4.8 km/h 98% 0 mm 0 W/m2
02:00 18.6 °C 18.4 °C 1016.1 hPa NW 1.6 km/h 4.8 km/h 99% 0 mm 0 W/m2
02:10 18.4 °C 18.1 °C 1016.1 hPa Calm   3.2 km/h 98% 0 mm 0 W/m2
02:20 18.3 °C 18 °C 1016.1 hPa WSW 1.6 km/h 3.2 km/h 98% 0 mm 0 W/m2
02:30 18.1 °C 17.8 °C 1016.1 hPa SW 1.6 km/h 4.8 km/h 98% 0 mm 0 W/m2
02:40 17.9 °C 17.7 °C 1016.1 hPa West 1.6 km/h 4.8 km/h 99% 0 mm 0 W/m2
02:50 17.9 °C 17.7 °C 1016.1 hPa Calm   3.2 km/h 99% 0 mm 0 W/m2
03:00 17.9 °C 17.7 °C 1016.1 hPa West 1.6 km/h 4.8 km/h 99% 0 mm 0 W/m2
03:10 17.9 °C 17.7 °C 1016.1 hPa WNW 1.6 km/h 4.8 km/h 99% 0 mm 0 W/m2
03:20 17.9 °C 17.7 °C 1016.1 hPa NW 1.6 km/h 3.2 km/h 99% 0 mm 0 W/m2
03:30 17.7 °C 17.6 °C 1016.1 hPa Calm   3.2 km/h 99% 0 mm 0 W/m2
03:40 17.6 °C 17.4 °C 1016.1 hPa West 1.6 km/h 3.2 km/h 99% 0 mm 0 W/m2
03:50 17.6 °C 17.4 °C 1016.1 hPa Calm   4.8 km/h 99% 0 mm 0 W/m2
04:00 17.5 °C 17.3 °C 1016.1 hPa Calm   3.2 km/h 99% 0 mm 0 W/m2
04:10 17.4 °C 17.2 °C 1016.1 hPa West 3.2 km/h 4.8 km/h 99% 0 mm 0 W/m2
04:20 17.3 °C 17.2 °C 1015.8 hPa Calm   3.2 km/h 99% 0 mm 0 W/m2
04:30 17.3 °C 17.2 °C 1015.8 hPa WSW 1.6 km/h 3.2 km/h 99% 0 mm 0 W/m2
04:40 17.2 °C 17.1 °C 1015.8 hPa Calm   4.8 km/h 99% 0 mm 0 W/m2
04:50 17.1 °C 16.9 °C 1015.8 hPa West 3.2 km/h 4.8 km/h 99% 0 mm 0 W/m2
05:00 17.1 °C 16.9 °C 1015.8 hPa West 1.6 km/h 8 km/h 99% 0 mm 0 W/m2
05:10 16.9 °C 16.7 °C 1016.1 hPa West 1.6 km/h 4.8 km/h 99% 0 mm 0 W/m2
05:20 17 °C 16.8 °C 1015.8 hPa NW 1.6 km/h 6.4 km/h 99% 0 mm 0 W/m2
05:30 16.9 °C 16.7 °C 1016.1 hPa West 1.6 km/h 4.8 km/h 99% 0 mm 0 W/m2
05:40 16.9 °C 16.7 °C 1016.1 hPa Calm   6.4 km/h 99% 0 mm 6 W/m2
05:50 16.8 °C 16.7 °C 1016.1 hPa WSW 1.6 km/h 3.2 km/h 99% 0 mm 13 W/m2
06:00 16.7 °C 16.6 °C 1016.1 hPa WSW 1.6 km/h 4.8 km/h 99% 0 mm 25 W/m2
06:10 16.7 °C 16.6 °C 1016.1 hPa NW 1.6 km/h 4.8 km/h 99% 0 mm 40 W/m2
06:20 16.7 °C 16.6 °C 1016.1 hPa WSW 1.6 km/h 3.2 km/h 99% 0 mm 58 W/m2
06:30 16.7 °C 16.6 °C 1016.1 hPa West 1.6 km/h 3.2 km/h 99% 0 mm 78 W/m2
06:40 16.8 °C 16.7 °C 1016.1 hPa Calm   4.8 km/h 99% 0 mm 104 W/m2
06:50 17 °C 16.8 °C 1016.5 hPa WNW 1.6 km/h 6.4 km/h 99% 0 mm 120 W/m2
07:00 17.2 °C 17.1 °C 1016.5 hPa Calm   6.4 km/h 99% 0 mm 148 W/m2
07:10 17.5 °C 17.3 °C 1016.5 hPa West 1.6 km/h 3.2 km/h 99% 0 mm 183 W/m2
07:20 17.7 °C 17.6 °C 1016.5 hPa West 1.6 km/h 4.8 km/h 99% 0 mm 211 W/m2
07:30 18.1 °C 17.9 °C 1016.5 hPa West 3.2 km/h 4.8 km/h 99% 0 mm 242 W/m2
07:40 18.4 °C 18.2 °C 1016.5 hPa WNW 3.2 km/h 4.8 km/h 99% 0 mm 274 W/m2
07:50 18.8 °C 18.7 °C 1016.5 hPa WSW 1.6 km/h 4.8 km/h 99% 0 mm 308 W/m2
08:00 19.1 °C 18.9 °C 1016.8 hPa Calm   4.8 km/h 99% 0 mm 340 W/m2
08:10 19.4 °C 19.2 °C 1016.8 hPa Calm   3.2 km/h 99% 0 mm 382 W/m2
08:20 19.9 °C 19.7 °C 1016.8 hPa Calm   3.2 km/h 99% 0 mm 414 W/m2
08:30 20.3 °C 20.2 °C 1016.8 hPa SW 1.6 km/h 3.2 km/h 99% 0 mm 452 W/m2
08:40 20.8 °C 20.5 °C 1016.8 hPa Calm   4.8 km/h 98% 0 mm 496 W/m2
08:50 21.3 °C 20.6 °C 1016.8 hPa Calm   4.8 km/h 96% 0 mm 530 W/m2
09:00 22.1 °C 21.3 °C 1016.5 hPa Calm   4.8 km/h 95% 0 mm 568 W/m2
09:10 23.3 °C 21.8 °C 1016.5 hPa South 1.6 km/h 6.4 km/h 91% 0 mm 602 W/m2
09:20 24.2 °C 22.3 °C 1016.5 hPa Calm   8 km/h 89% 0 mm 629 W/m2
09:30 25.1 °C 22.4 °C 1016.5 hPa South 3.2 km/h 8 km/h 85% 0 mm 655 W/m2
09:40 25.8 °C 22.5 °C 1016.5 hPa South 1.6 km/h 6.4 km/h 82% 0 mm 680 W/m2
09:50 26.4 °C 22.9 °C 1016.5 hPa SE 3.2 km/h 8 km/h 81% 0 mm 704 W/m2
10:00 26.9 °C 23.2 °C 1016.5 hPa Calm   4.8 km/h 80% 0 mm 726 W/m2
10:10 27.3 °C 23.2 °C 1016.5 hPa WSW 1.6 km/h 6.4 km/h 78% 0 mm 748 W/m2
10:20 27.7 °C 22.7 °C 1016.5 hPa South 1.6 km/h 4.8 km/h 74% 0 mm 768 W/m2
10:30 28.1 °C 23 °C 1016.5 hPa WSW 3.2 km/h 9.7 km/h 74% 0 mm 787 W/m2
10:40 28.3 °C 23 °C 1016.1 hPa WSW 3.2 km/h 8 km/h 73% 0 mm 805 W/m2
10:50 28.9 °C 23.1 °C 1016.1 hPa SSE 3.2 km/h 9.7 km/h 71% 0 mm 232 W/m2
11:00 29.2 °C 22.9 °C 1016.1 hPa NNE 1.6 km/h 11.3 km/h 69% 0 mm 837 W/m2
11:10 29.4 °C 22.9 °C 1016.1 hPa NE 1.6 km/h 9.7 km/h 68% 0 mm 409 W/m2
11:20 29.7 °C 22.4 °C 1016.1 hPa NE 4.8 km/h 12.9 km/h 65% 0 mm 347 W/m2
11:30 29.6 °C 22.6 °C 1016.1 hPa ENE 1.6 km/h 12.9 km/h 66% 0 mm 873 W/m2
11:40 29.7 °C 22.6 °C 1016.1 hPa East 1.6 km/h 11.3 km/h 66% 0 mm 471 W/m2
11:50 29.8 °C 23 °C 1016.1 hPa NE 8 km/h 12.9 km/h 67% 0 mm 798 W/m2
12:00 29.6 °C 22.1 °C 1015.8 hPa NNE 4.8 km/h 12.9 km/h 64% 0 mm 539 W/m2
12:10 29.8 °C 22.8 °C 1015.8 hPa Calm   11.3 km/h 66% 0 mm 901 W/m2
12:20 30.1 °C 22.5 °C 1015.8 hPa North 8 km/h 12.9 km/h 64% 0 mm 904 W/m2
12:30 30.3 °C 22.8 °C 1015.8 hPa NE 8 km/h 16.1 km/h 64% 0 mm 854 W/m2
12:40 30.2 °C 22.6 °C 1015.8 hPa North 1.6 km/h 16.1 km/h 64% 0 mm 573 W/m2
12:50 29.9 °C 22.2 °C 1015.8 hPa Calm   6.4 km/h 63% 0 mm 562 W/m2
13:00 30.1 °C 22.3 °C 1015.5 hPa NW 3.2 km/h 9.7 km/h 63% 0 mm 900 W/m2
13:10 30.1 °C 22 °C 1015.5 hPa WNW 3.2 km/h 12.9 km/h 62% 0 mm 895 W/m2
13:20 30.4 °C 22.3 °C 1015.5 hPa NW 3.2 km/h 12.9 km/h 62% 0 mm 889 W/m2
13:30 30.8 °C 21.8 °C 1015.5 hPa NNW 3.2 km/h 9.7 km/h 59% 0 mm 876 W/m2
13:40 30.6 °C 21.7 °C 1015.1 hPa NW 4.8 km/h 16.1 km/h 59% 0 mm 791 W/m2
13:50 30.6 °C 21.1 °C 1015.1 hPa NW 9.7 km/h 14.5 km/h 57% 0 mm 410 W/m2
14:00 30.6 °C 21.7 °C 1015.1 hPa NW 9.7 km/h 19.3 km/h 59% 0 mm 847 W/m2
14:10 30.3 °C 20.8 °C 1015.5 hPa WNW 12.9 km/h 24.1 km/h 57% 0 mm 762 W/m2
14:20 29.8 °C 20.7 °C 1015.5 hPa NNW 12.9 km/h 25.7 km/h 58% 0 mm 818 W/m2
14:30 30.1 °C 20.7 °C 1015.1 hPa NNW 3.2 km/h 22.5 km/h 57% 0 mm 377 W/m2
14:40 29.8 °C 19.8 °C 1015.1 hPa NNW 4.8 km/h 14.5 km/h 55% 0 mm 265 W/m2
14:50 29.4 °C 20.3 °C 1015.1 hPa NNW 1.6 km/h 11.3 km/h 58% 0 mm 203 W/m2
15:00 28.9 °C 20.7 °C 1015.1 hPa NNW 4.8 km/h 12.9 km/h 61% 0 mm 178 W/m2
15:10 28.5 °C 20.8 °C 1015.1 hPa NW 4.8 km/h 11.3 km/h 63% 0 mm 224 W/m2
15:20 28.3 °C 21.1 °C 1015.1 hPa West 8 km/h 11.3 km/h 65% 0 mm 232 W/m2
15:30 28.1 °C 21.6 °C 1015.1 hPa WSW 3.2 km/h 12.9 km/h 68% 0 mm 158 W/m2
15:40 27.8 °C 20.9 °C 1014.8 hPa WSW 3.2 km/h 11.3 km/h 66% 0 mm 176 W/m2
15:50 27.8 °C 20.9 °C 1015.1 hPa WSW 11.3 km/h 12.9 km/h 66% 0 mm 623 W/m2
16:00 28 °C 21.6 °C 1015.1 hPa SW 12.9 km/h 20.9 km/h 68% 0 mm 596 W/m2
16:10 27.6 °C 21.2 °C 1015.1 hPa WSW 11.3 km/h 22.5 km/h 68% 0 mm 147 W/m2
16:20 26.8 °C 20.3 °C 1015.1 hPa SW 14.5 km/h 30.6 km/h 68% 0 mm 95 W/m2
16:30 26.2 °C 19.6 °C 1015.5 hPa SW 14.5 km/h 22.5 km/h 67% 0 mm 47 W/m2
16:40 25.4 °C 19.1 °C 1015.5 hPa SW 11.3 km/h 24.1 km/h 68% 0 mm 30 W/m2
16:50 24.9 °C 18.8 °C 1015.5 hPa SW 8 km/h 19.3 km/h 69% 0 mm 29 W/m2
17:00 24.6 °C 18.6 °C 1015.5 hPa SW 4.8 km/h 14.5 km/h 69% 0 mm 17 W/m2
17:40 22.9 °C 19.4 °C 1015.8 hPa SW 5.6 km/h 19.3 km/h 80.5% 0.25 mm 23 W/m2
17:50 21.7 °C 19.1 °C 1016.1 hPa WSW 1.6 km/h 16.1 km/h 85% 0 mm 17 W/m2
18:00 21.5 °C 19.2 °C 1016.1 hPa WSW 8 km/h 12.9 km/h 87% 0.25 mm 17 W/m2
18:10 21.1 °C 19.2 °C 1016.1 hPa SW 4.8 km/h 17.7 km/h 89% 0.51 mm 13 W/m2
18:20 21 °C 19.3 °C 1016.5 hPa NE 4.8 km/h 8 km/h 90% 0.25 mm 15 W/m2
18:30 20.9 °C 19.4 °C 1016.8 hPa NNE 8 km/h 11.3 km/h 91% 0 mm 14 W/m2
18:40 20.7 °C 19.1 °C 1017.2 hPa North 8 km/h 12.9 km/h 90% 0.25 mm 12 W/m2
18:50 20.6 °C 19.6 °C 1017.5 hPa NNE 4.8 km/h 12.9 km/h 94% 0.25 mm 5 W/m2
19:00 20.4 °C 19.4 °C 1017.5 hPa West 3.2 km/h 9.7 km/h 94% 0.25 mm 6 W/m2
19:10 20.3 °C 19.5 °C 1017.2 hPa SW 8 km/h 16.1 km/h 95% 0 mm 9 W/m2
19:20 20 °C 19.3 °C 1017.2 hPa SW 8 km/h 17.7 km/h 96% 0.25 mm 5 W/m2
19:30 19.9 °C 19.2 °C 1017.2 hPa SW 1.6 km/h 11.3 km/h 96% 0 mm 2 W/m2
19:40 19.9 °C 19.2 °C 1017.2 hPa SSE 1.6 km/h 6.4 km/h 96% 0 mm 0 W/m2
19:50 19.9 °C 19.2 °C 1017.2 hPa NE 3.2 km/h 6.4 km/h 96% 0 mm 0 W/m2
20:00 19.9 °C 19.2 °C 1017.2 hPa NNE 3.2 km/h 8 km/h 96% 0 mm 0 W/m2
20:10 19.9 °C 19.2 °C 1017.2 hPa NE 1.6 km/h 8 km/h 96% 0 mm 0 W/m2
20:20 19.9 °C 19.4 °C 1017.2 hPa SSE 3.2 km/h 8 km/h 97% 0 mm 0 W/m2
20:30 19.9 °C 19.4 °C 1017.2 hPa SSW 3.2 km/h 6.4 km/h 97% 0 mm 0 W/m2
20:40 19.8 °C 19.2 °C 1017.5 hPa SSW 3.2 km/h 9.7 km/h 96% 0 mm 0 W/m2
20:50 19.8 °C 19.2 °C 1017.5 hPa South 1.6 km/h 8 km/h 96% 0 mm 0 W/m2
21:00 19.8 °C 19.3 °C 1017.5 hPa WSW 1.6 km/h 6.4 km/h 97% 0 mm 0 W/m2
21:10 19.6 °C 19.3 °C 1017.5 hPa WSW 3.2 km/h 6.4 km/h 98% 0 mm 0 W/m2
21:20 19.4 °C 19.1 °C 1017.5 hPa West 1.6 km/h 8 km/h 98% 0 mm 0 W/m2
21:30 19.2 °C 18.8 °C 1017.5 hPa West 3.2 km/h 9.7 km/h 98% 0 mm 0 W/m2
21:40 18.9 °C 18.6 °C 1017.5 hPa West 1.6 km/h 9.7 km/h 98% 0 mm 0 W/m2
21:50 18.8 °C 18.5 °C 1017.5 hPa SW 1.6 km/h 4.8 km/h 98% 0 mm 0 W/m2
22:00 18.7 °C 18.4 °C 1017.5 hPa West 3.2 km/h 4.8 km/h 98% 0 mm 0 W/m2
22:10 18.6 °C 18.4 °C 1017.5 hPa West 1.6 km/h 4.8 km/h 99% 0 mm 0 W/m2
22:20 18.4 °C 18.2 °C 1017.5 hPa West 1.6 km/h 6.4 km/h 99% 0 mm 0 W/m2
22:30 18.3 °C 18.2 °C 1017.5 hPa West 3.2 km/h 4.8 km/h 99% 0 mm 0 W/m2
22:40 18.2 °C 18.1 °C 1017.5 hPa West 1.6 km/h 4.8 km/h 99% 0 mm 0 W/m2
22:50 18.1 °C 17.9 °C 1017.5 hPa West 1.6 km/h 4.8 km/h 99% 0 mm 0 W/m2
23:00 18 °C 17.8 °C 1017.5 hPa WNW 1.6 km/h 4.8 km/h 99% 0 mm 0 W/m2
23:10 17.9 °C 17.7 °C 1017.5 hPa Calm   3.2 km/h 99% 0 mm 0 W/m2
23:20 17.7 °C 17.6 °C 1017.5 hPa WSW 3.2 km/h 4.8 km/h 99% 0 mm 0 W/m2
23:30 17.5 °C 17.3 °C 1017.5 hPa Calm   3.2 km/h 99% 0 mm 0 W/m2
23:40 17.4 °C 17.3 °C 1017.5 hPa Calm   3.2 km/h 99% 0 mm 0 W/m2
Knjazevac, Serbia
Compliments of Weather Underground - 2 mb